This is the latest recevied weather packets stored in our database for station/object LRCL. If no packets are shown the sender has not sent any weather packets the latest 10 day(s).
| Time | Temp. | Humidity | Pressure | Rain* | Wind** | Luminosity | Snow |
|---|---|---|---|---|---|---|---|
| 1778122988 | 8.89° C | 87% | 1014 hPa | - | - | - | - |
| 1778122088 | 8.89° C | 87% | 1013 hPa | - | - | - | - |
| 1778121188 | 8.89° C | 87% | 1013 hPa | - | - | - | - |
| 1778120288 | 8.89° C | 87% | 1013 hPa | - | - | - | - |
| 1778119388 | 8.89° C | 87% | 1013 hPa | - | - | - | - |
| 1778118488 | 10° C | 82% | 1013 hPa | - | - | - | - |
| 1778117588 | 10° C | 82% | 1013 hPa | - | - | - | - |
| 1778116688 | 11.11° C | 77% | 1013 hPa | - | - | - | - |
| 1778115788 | 11.11° C | 77% | 1013 hPa | - | - | - | - |
| 1778114888 | 10° C | 82% | 1013 hPa | - | - | - | - |
| 1778113988 | 10° C | 82% | 1013 hPa | - | - | - | - |
| 1778113088 | 11.11° C | 77% | 1013 hPa | - | - | - | - |
| 1778112188 | 11.11° C | 77% | 1013 hPa | - | - | - | - |
| 1778111288 | 12.22° C | 72% | 1013 hPa | - | - | - | - |
| 1778110388 | 12.22° C | 72% | 1013 hPa | - | - | - | - |
| 1778109489 | 12.22° C | 77% | 1013 hPa | - | - | - | - |
| 1778108588 | 12.22° C | 77% | 1013 hPa | - | - | - | - |
| 1778107688 | 13.89° C | 63% | 1013 hPa | - | - | - | - |
| 1778106788 | 13.89° C | 63% | 1013 hPa | - | - | - | - |
| 1778105888 | 12.78° C | 67% | 1013 hPa | - | - | - | - |
| 1778104988 | 12.78° C | 67% | 1013 hPa | - | - | - | - |
| 1778104104 | 15° C | 63% | 1013 hPa | - | - | - | - |
| 1778103188 | 15° C | 63% | 1013 hPa | - | - | - | - |
| 1778102288 | 13.89° C | 67% | 1013 hPa | - | - | - | - |
| 1778101388 | 13.89° C | 67% | 1013 hPa | - | - | - | - |
* Rain since midnight (hover to see other rain measurements)
** Current wind speed in m/s (hover to see current wind gust speed)